When you browse on this site, cookies collect data to enhance your experience and personalize the content and advertising you see.
Visit our Privacy Policy to learn more. By continuing to use the site, you agree to this use of cookies and data.
  • In United Kingdom
  • List of Countries
  • For 7 days
  • Water Temperature
  • Satellite Maps
  • Weather Map
  • Weather Widgets
  • user-avatar
    Login

    Hourly Weather Pivnichne

    Today, 25 June, Tuesday

    Time Temperature Precipitation Wind Pressure Humidity
    00:00 +21°C° 1.8 mm 3 mps 755 mmHg 88%
    01:00 +21°C° 1.8 mm 3 mps 755 mmHg 88%
    02:00 +21°C° 0 mm 3 mps 756 mmHg 86%
    03:00 +21°C° 0.3 mm 3 mps 756 mmHg 84%
    04:00 +21°C° 0.3 mm 3 mps 756 mmHg 82%
    05:00 +21°C° 0.3 mm 4 mps 756 mmHg 80%
    06:00 +22°C° 0 mm 4 mps 756 mmHg 74%
    07:00 +25°C° 0 mm 4 mps 756 mmHg 69%
    08:00 +27°C° 0 mm 4 mps 757 mmHg 63%
    09:00 +29°C° 0 mm 5 mps 757 mmHg 57%
    10:00 +30°C° 0 mm 5 mps 757 mmHg 52%
    11:00 +33°C° 0 mm 6 mps 757 mmHg 46%
    12:00 +33°C° 0 mm 6 mps 757 mmHg 46%
    13:00 +34°C° 0 mm 6 mps 757 mmHg 46%
    14:00 +34°C° 0 mm 6 mps 757 mmHg 46%
    15:00 +33°C° 0.1 mm 6 mps 757 mmHg 49%
    16:00 +32°C° 0.1 mm 7 mps 757 mmHg 53%
    17:00 +32°C° 0.1 mm 7 mps 757 mmHg 56%
    18:00 +29°C° 0 mm 6 mps 758 mmHg 62%
    19:00 +27°C° 0 mm 5 mps 758 mmHg 68%
    20:00 +25°C° 0 mm 4 mps 759 mmHg 73%
    21:00 +25°C° 0 mm 4 mps 759 mmHg 74%
    22:00 +23°C° 0 mm 4 mps 759 mmHg 75%
    23:00 +22°C° 0 mm 5 mps 759 mmHg 76%

    Tomorrow, 26 June, Wednesday

    Time Temperature Precipitation Wind Pressure Humidity
    00:00 +22°C° 0 mm 5 mps 760 mmHg 73%
    01:00 +21°C° 0 mm 5 mps 760 mmHg 69%
    02:00 +20°C° 0 mm 5 mps 760 mmHg 66%
    03:00 +20°C° 0 mm 5 mps 760 mmHg 67%
    04:00 +19°C° 0 mm 5 mps 760 mmHg 68%
    05:00 +19°C° 0 mm 5 mps 760 mmHg 69%
    06:00 +20°C° 0 mm 6 mps 760 mmHg 66%
    07:00 +22°C° 0 mm 6 mps 761 mmHg 63%
    08:00 +23°C° 0 mm 6 mps 761 mmHg 60%
    09:00 +26°C° 0 mm 6 mps 761 mmHg 56%
    10:00 +27°C° 0 mm 6 mps 761 mmHg 52%
    11:00 +28°C° 0 mm 6 mps 761 mmHg 48%
    12:00 +28°C° 0 mm 6 mps 761 mmHg 46%
    13:00 +29°C° 0 mm 6 mps 760 mmHg 43%
    14:00 +29°C° 0 mm 6 mps 760 mmHg 40%
    15:00 +29°C° 0 mm 6 mps 760 mmHg 41%
    16:00 +28°C° 0 mm 6 mps 760 mmHg 43%
    17:00 +28°C° 0 mm 5 mps 759 mmHg 44%
    18:00 +26°C° 0 mm 5 mps 759 mmHg 50%
    19:00 +23°C° 0 mm 4 mps 759 mmHg 56%
    20:00 +21°C° 0 mm 3 mps 759 mmHg 62%
    21:00 +21°C° 0 mm 3 mps 759 mmHg 64%
    22:00 +20°C° 0 mm 3 mps 759 mmHg 65%
    23:00 +19°C° 0 mm 3 mps 759 mmHg 67%

    Day after tomorrow, 27 June, Thursday

    Time Temperature Precipitation Wind Pressure Humidity
    00:00 +19°C° 0 mm 3 mps 759 mmHg 69%
    01:00 +18°C° 0 mm 3 mps 758 mmHg 70%
    02:00 +18°C° 0 mm 3 mps 758 mmHg 72%
    03:00 +18°C° 0 mm 3 mps 758 mmHg 72%
    04:00 +18°C° 0 mm 3 mps 757 mmHg 71%
    05:00 +18°C° 0 mm 2 mps 757 mmHg 71%
    06:00 +20°C° 0 mm 2 mps 757 mmHg 64%
    07:00 +23°C° 0 mm 2 mps 756 mmHg 56%
    08:00 +25°C° 0 mm 2 mps 756 mmHg 49%
    09:00 +26°C° 0 mm 1 mps 756 mmHg 45%
    10:00 +28°C° 0 mm 1 mps 755 mmHg 40%
    11:00 +27°C° 0 mm 0 mps 755 mmHg 36%
    12:00 +30°C° 0 mm 1 mps 754 mmHg 34%
    13:00 +30°C° 0 mm 1 mps 754 mmHg 32%
    14:00 +31°C° 0 mm 2 mps 753 mmHg 30%
    15:00 +30°C° 0 mm 2 mps 752 mmHg 32%
    16:00 +30°C° 0 mm 3 mps 752 mmHg 34%
    17:00 +30°C° 0 mm 3 mps 751 mmHg 36%
    18:00 +28°C° 0 mm 3 mps 750 mmHg 43%
    19:00 +26°C° 0 mm 3 mps 750 mmHg 51%
    20:00 +23°C° 0 mm 2 mps 749 mmHg 58%
    21:00 +22°C° 0 mm 3 mps 749 mmHg 60%
    22:00 +21°C° 0 mm 3 mps 749 mmHg 62%
    23:00 +21°C° 0 mm 4 mps 748 mmHg 64%

    28 June, Friday

    Time Temperature Precipitation Wind Pressure Humidity
    00:00 +21°C° 0 mm 4 mps 748 mmHg 67%
    01:00 +21°C° 0 mm 4 mps 747 mmHg 70%
    02:00 +21°C° 0 mm 4 mps 747 mmHg 74%
    03:00 +21°C° 0.2 mm 4 mps 747 mmHg 79%
    04:00 +21°C° 0.2 mm 4 mps 746 mmHg 84%
    05:00 +21°C° 0.2 mm 4 mps 746 mmHg 89%
    06:00 +22°C° 0 mm 4 mps 746 mmHg 83%
    07:00 +22°C° 0 mm 5 mps 747 mmHg 78%
    08:00 +23°C° 0 mm 6 mps 747 mmHg 73%
    09:00 +23°C° 0 mm 6 mps 747 mmHg 67%
    10:00 +24°C° 0 mm 6 mps 747 mmHg 61%
    11:00 +26°C° 0 mm 6 mps 747 mmHg 56%
    12:00 +26°C° 0 mm 6 mps 747 mmHg 52%
    13:00 +27°C° 0 mm 6 mps 747 mmHg 48%
    14:00 +27°C° 0 mm 7 mps 747 mmHg 44%
    15:00 +27°C° 0 mm 7 mps 747 mmHg 44%
    16:00 +26°C° 0 mm 7 mps 747 mmHg 44%
    17:00 +26°C° 0 mm 7 mps 747 mmHg 43%
    18:00 +23°C° 0 mm 6 mps 747 mmHg 47%
    19:00 +21°C° 0 mm 5 mps 748 mmHg 52%
    20:00 +20°C° 0 mm 4 mps 748 mmHg 56%
    21:00 +19°C° 0 mm 4 mps 749 mmHg 60%
    22:00 +18°C° 0 mm 4 mps 749 mmHg 65%
    23:00 +17°C° 0 mm 4 mps 749 mmHg 70%

    29 June, Saturday

    Time Temperature Precipitation Wind Pressure Humidity
    00:00 +15°C° 0 mm 4 mps 749 mmHg 73%
    01:00 +16°C° 0 mm 3 mps 749 mmHg 76%
    02:00 +14°C° 0 mm 3 mps 749 mmHg 79%
    03:00 +14°C° 0 mm 3 mps 749 mmHg 80%
    04:00 +14°C° 0 mm 3 mps 749 mmHg 81%
    05:00 +14°C° 0 mm 4 mps 749 mmHg 82%
    06:00 +17°C° 0 mm 4 mps 749 mmHg 75%
    07:00 +17°C° 0 mm 5 mps 749 mmHg 69%
    08:00 +20°C° 0 mm 5 mps 750 mmHg 62%
    09:00 +20°C° 0.1 mm 6 mps 750 mmHg 58%
    10:00 +21°C° 0.1 mm 6 mps 750 mmHg 54%
    11:00 +22°C° 0.1 mm 6 mps 750 mmHg 50%
    12:00 +22°C° 0.2 mm 7 mps 750 mmHg 48%
    13:00 +22°C° 0.2 mm 7 mps 750 mmHg 47%
    14:00 +22°C° 0.2 mm 8 mps 750 mmHg 45%
    15:00 +22°C° 0.1 mm 7 mps 750 mmHg 45%
    16:00 +21°C° 0.1 mm 7 mps 750 mmHg 45%
    17:00 +21°C° 0.1 mm 7 mps 750 mmHg 44%
    18:00 +19°C° 0 mm 6 mps 751 mmHg 48%
    19:00 +17°C° 0 mm 5 mps 751 mmHg 52%
    20:00 +15°C° 0 mm 5 mps 752 mmHg 55%
    21:00 +14°C° 0 mm 4 mps 752 mmHg 60%
    22:00 +13°C° 0 mm 3 mps 752 mmHg 66%
    23:00 +13°C° 0 mm 2 mps 752 mmHg 71%

    30 June, Sunday

    Time Temperature Precipitation Wind Pressure Humidity
    00:00 +13°C° 0 mm 2 mps 752 mmHg 72%
    01:00 +13°C° 0 mm 2 mps 752 mmHg 72%
    02:00 +12°C° 0 mm 2 mps 752 mmHg 73%
    03:00 +11°C° 0 mm 3 mps 753 mmHg 73%
    04:00 +12°C° 0 mm 3 mps 753 mmHg 72%
    05:00 +12°C° 0 mm 3 mps 753 mmHg 72%
    06:00 +14°C° 0.1 mm 4 mps 753 mmHg 64%
    07:00 +17°C° 0.1 mm 4 mps 753 mmHg 57%
    08:00 +19°C° 0.1 mm 4 mps 753 mmHg 50%
    09:00 +20°C° 0.1 mm 4 mps 753 mmHg 46%
    10:00 +20°C° 0.1 mm 4 mps 753 mmHg 42%
    11:00 +21°C° 0.1 mm 4 mps 753 mmHg 38%
    12:00 +21°C° 0 mm 4 mps 753 mmHg 37%
    13:00 +22°C° 0 mm 4 mps 753 mmHg 36%
    14:00 +22°C° 0 mm 4 mps 753 mmHg 35%
    15:00 +22°C° 0 mm 4 mps 753 mmHg 36%
    16:00 +21°C° 0 mm 4 mps 754 mmHg 37%
    17:00 +21°C° 0 mm 4 mps 754 mmHg 38%
    18:00 +20°C° 0 mm 3 mps 754 mmHg 41%
    19:00 +18°C° 0 mm 3 mps 754 mmHg 45%
    20:00 +17°C° 0 mm 2 mps 754 mmHg 49%
    21:00 +16°C° 0 mm 2 mps 754 mmHg 50%
    22:00 +16°C° 0 mm 2 mps 754 mmHg 52%
    23:00 +15°C° 0 mm 1 mps 755 mmHg 53%
    Show more